Torna al catalogo

DELTA 1 DEB

AttivoSSO
NORAD 12284·DEBRIS·🇺🇸 United States

Lanciato Mar 5, 1978 da Vandenberg Space Force Base

Loading…

Prossimi Passaggi (prossime 24 ore)

TLE

AggiornatoSource: Space-Track

Epoca: Sep 13, 2026, 19:12 UTC

1 12284U 78026EC  26256.80062214  .00000676  00000-0  42870-3 0  9997
2 12284  98.8878 335.7708 0090313 224.2715 262.9942 14.05302877316774

Traccia DELTA 1 DEB in tempo reale con AllMySat

Download on the App Store